When you browse on this site, cookies collect data to enhance your experience and personalize the content and advertising you see.
Visit our Privacy Policy to learn more. By continuing to use the site, you agree to this use of cookies and data.
  • In Slovakia
  • List of Countries
  • For 7 days
  • Water Temperature
  • Satellite Maps
  • Weather Map
  • Weather Widgets
  • user-avatar
    Login

    Hourly Weather Mendoza

    Today, 16 January, Wednesday

    Time Temperature Precipitation Wind Pressure Humidity
    00:00 +26°C° 0 mm 3 mps 697 mmHg 31%
    01:00 +26°C° 0 mm 3 mps 696 mmHg 33%
    02:00 +25°C° 0 mm 2 mps 696 mmHg 34%
    03:00 +25°C° 0 mm 2 mps 696 mmHg 36%
    04:00 +24°C° 0 mm 2 mps 696 mmHg 37%
    05:00 +26°C° 0 mm 2 mps 696 mmHg 35%
    06:00 +27°C° 0 mm 2 mps 697 mmHg 33%
    07:00 +27°C° 0 mm 1 mps 697 mmHg 32%
    08:00 +29°C° 0 mm 2 mps 697 mmHg 31%
    09:00 +30°C° 0 mm 3 mps 697 mmHg 29%
    10:00 +33°C° 0 mm 3 mps 697 mmHg 28%
    11:00 +34°C° 0 mm 3 mps 696 mmHg 27%
    12:00 +34°C° 0 mm 3 mps 696 mmHg 26%
    13:00 +35°C° 0 mm 3 mps 696 mmHg 25%
    14:00 +36°C° 0 mm 3 mps 696 mmHg 24%
    15:00 +36°C° 0 mm 3 mps 696 mmHg 23%
    16:00 +36°C° 0 mm 3 mps 696 mmHg 22%
    17:00 +35°C° 0.7 mm 3 mps 696 mmHg 26%
    18:00 +33°C° 0.7 mm 4 mps 697 mmHg 29%
    19:00 +32°C° 0.7 mm 4 mps 697 mmHg 32%
    20:00 +29°C° 0.6 mm 5 mps 698 mmHg 34%
    21:00 +27°C° 0.6 mm 7 mps 699 mmHg 36%
    22:00 +26°C° 0.6 mm 9 mps 701 mmHg 38%
    23:00 +24°C° 0 mm 8 mps 701 mmHg 40%

    Tomorrow, 17 January, Thursday

    Time Temperature Precipitation Wind Pressure Humidity
    00:00 +23°C° 0 mm 8 mps 701 mmHg 41%
    01:00 +22°C° 0 mm 7 mps 702 mmHg 43%
    02:00 +21°C° 0 mm 6 mps 702 mmHg 47%
    03:00 +20°C° 0 mm 6 mps 702 mmHg 51%
    04:00 +19°C° 0 mm 5 mps 702 mmHg 55%
    05:00 +19°C° 0 mm 6 mps 702 mmHg 53%
    06:00 +19°C° 0 mm 6 mps 703 mmHg 51%
    07:00 +19°C° 0 mm 6 mps 703 mmHg 48%
    08:00 +19°C° 0.1 mm 6 mps 703 mmHg 49%
    09:00 +19°C° 0.1 mm 6 mps 704 mmHg 49%
    10:00 +19°C° 0.1 mm 6 mps 704 mmHg 49%
    11:00 +19°C° 0.1 mm 6 mps 704 mmHg 52%
    12:00 +19°C° 0.1 mm 6 mps 703 mmHg 55%
    13:00 +17°C° 0.1 mm 6 mps 703 mmHg 58%
    14:00 +19°C° 0.1 mm 5 mps 703 mmHg 55%
    15:00 +19°C° 0.1 mm 5 mps 703 mmHg 51%
    16:00 +20°C° 0.1 mm 4 mps 703 mmHg 48%
    17:00 +20°C° 0 mm 4 mps 703 mmHg 50%
    18:00 +19°C° 0 mm 3 mps 703 mmHg 52%
    19:00 +18°C° 0 mm 2 mps 703 mmHg 53%
    20:00 +19°C° 0 mm 1 mps 703 mmHg 56%
    21:00 +19°C° 0 mm 1 mps 704 mmHg 59%
    22:00 +18°C° 0 mm 1 mps 704 mmHg 61%
    23:00 +18°C° 0 mm 1 mps 703 mmHg 63%

    Day after tomorrow, 18 January, Friday

    Time Temperature Precipitation Wind Pressure Humidity
    00:00 +16°C° 0 mm 1 mps 703 mmHg 64%
    01:00 +16°C° 0 mm 1 mps 702 mmHg 66%
    02:00 +16°C° 0 mm 1 mps 702 mmHg 67%
    03:00 +15°C° 0 mm 1 mps 702 mmHg 69%
    04:00 +15°C° 0 mm 1 mps 701 mmHg 70%
    05:00 +16°C° 0 mm 1 mps 702 mmHg 66%
    06:00 +18°C° 0 mm 1 mps 702 mmHg 63%
    07:00 +19°C° 0 mm 1 mps 702 mmHg 59%
    08:00 +20°C° 0 mm 2 mps 702 mmHg 51%
    09:00 +21°C° 0 mm 2 mps 702 mmHg 44%
    10:00 +23°C° 0 mm 2 mps 702 mmHg 36%
    11:00 +25°C° 0 mm 2 mps 701 mmHg 34%
    12:00 +26°C° 0 mm 2 mps 701 mmHg 31%
    13:00 +27°C° 0 mm 3 mps 700 mmHg 28%
    14:00 +27°C° 0 mm 3 mps 700 mmHg 27%
    15:00 +28°C° 0 mm 3 mps 699 mmHg 26%
    16:00 +28°C° 0 mm 3 mps 699 mmHg 26%
    17:00 +28°C° 0 mm 2 mps 699 mmHg 27%
    18:00 +27°C° 0 mm 2 mps 699 mmHg 29%
    19:00 +26°C° 0 mm 2 mps 700 mmHg 30%
    20:00 +25°C° 0 mm 2 mps 700 mmHg 32%
    21:00 +25°C° 0 mm 2 mps 700 mmHg 33%
    22:00 +24°C° 0 mm 2 mps 700 mmHg 35%
    23:00 +24°C° 0 mm 2 mps 700 mmHg 37%

    19 January, Saturday

    Time Temperature Precipitation Wind Pressure Humidity
    00:00 +23°C° 0 mm 2 mps 700 mmHg 40%
    01:00 +23°C° 0 mm 1 mps 699 mmHg 42%
    02:00 +22°C° 0 mm 1 mps 699 mmHg 44%
    03:00 +22°C° 0 mm 1 mps 699 mmHg 46%
    04:00 +21°C° 0 mm 1 mps 699 mmHg 48%
    05:00 +22°C° 0 mm 1 mps 699 mmHg 45%
    06:00 +24°C° 0 mm 1 mps 699 mmHg 43%
    07:00 +25°C° 0 mm 1 mps 700 mmHg 40%
    08:00 +26°C° 0 mm 2 mps 700 mmHg 37%
    09:00 +27°C° 0 mm 3 mps 700 mmHg 35%
    10:00 +29°C° 0 mm 4 mps 700 mmHg 32%
    11:00 +30°C° 0 mm 4 mps 699 mmHg 31%
    12:00 +32°C° 0 mm 4 mps 699 mmHg 30%
    13:00 +33°C° 0 mm 4 mps 698 mmHg 29%
    14:00 +33°C° 0 mm 4 mps 698 mmHg 29%
    15:00 +33°C° 0 mm 3 mps 698 mmHg 28%
    16:00 +34°C° 0 mm 3 mps 697 mmHg 28%
    17:00 +32°C° 0 mm 2 mps 698 mmHg 30%
    18:00 +31°C° 0 mm 2 mps 698 mmHg 32%
    19:00 +30°C° 0 mm 1 mps 698 mmHg 34%
    20:00 +29°C° 0 mm 1 mps 698 mmHg 36%
    21:00 +29°C° 0 mm 2 mps 699 mmHg 38%
    22:00 +28°C° 0 mm 2 mps 699 mmHg 40%
    23:00 +27°C° 0 mm 2 mps 699 mmHg 44%

    20 January, Sunday

    Time Temperature Precipitation Wind Pressure Humidity
    00:00 +27°C° 0 mm 2 mps 698 mmHg 47%
    01:00 +26°C° 0 mm 2 mps 698 mmHg 51%
    02:00 +26°C° 0 mm 1 mps 698 mmHg 54%
    03:00 +25°C° 0 mm 1 mps 697 mmHg 58%
    04:00 +24°C° 0 mm 1 mps 697 mmHg 61%
    05:00 +26°C° 0 mm 2 mps 698 mmHg 56%
    06:00 +27°C° 0 mm 2 mps 698 mmHg 51%
    07:00 +28°C° 0 mm 3 mps 698 mmHg 46%
    08:00 +30°C° 0 mm 4 mps 698 mmHg 41%
    09:00 +32°C° 0 mm 5 mps 698 mmHg 36%
    10:00 +34°C° 0 mm 5 mps 698 mmHg 32%
    11:00 +34°C° 0 mm 5 mps 697 mmHg 30%
    12:00 +35°C° 0 mm 6 mps 697 mmHg 29%
    13:00 +36°C° 0 mm 6 mps 696 mmHg 28%
    14:00 +36°C° 0 mm 5 mps 695 mmHg 27%
    15:00 +36°C° 0 mm 5 mps 695 mmHg 26%
    16:00 +37°C° 0 mm 4 mps 695 mmHg 26%
    17:00 +36°C° 0 mm 4 mps 695 mmHg 28%
    18:00 +35°C° 0 mm 3 mps 695 mmHg 30%
    19:00 +34°C° 0 mm 3 mps 695 mmHg 33%
    20:00 +33°C° 0 mm 3 mps 696 mmHg 37%
    21:00 +31°C° 0 mm 3 mps 696 mmHg 40%
    22:00 +30°C° 0 mm 3 mps 696 mmHg 44%
    23:00 +30°C° 0 mm 3 mps 696 mmHg 48%

    21 January, Monday

    Time Temperature Precipitation Wind Pressure Humidity
    00:00 +29°C° 0 mm 2 mps 696 mmHg 53%
    01:00 +28°C° 0 mm 2 mps 695 mmHg 57%
    02:00 +28°C° 0 mm 2 mps 695 mmHg 59%
    03:00 +27°C° 0 mm 2 mps 696 mmHg 61%
    04:00 +27°C° 0 mm 2 mps 696 mmHg 63%
    05:00 +27°C° 0.1 mm 3 mps 696 mmHg 62%
    06:00 +28°C° 0.1 mm 4 mps 697 mmHg 61%
    07:00 +29°C° 0.1 mm 5 mps 698 mmHg 60%
    08:00 +30°C° 0.1 mm 5 mps 698 mmHg 54%
    09:00 +32°C° 0.1 mm 5 mps 698 mmHg 48%
    10:00 +32°C° 0.1 mm 6 mps 698 mmHg 42%
    11:00 +33°C° 0 mm 5 mps 698 mmHg 39%
    12:00 +34°C° 0 mm 4 mps 698 mmHg 35%
    13:00 +35°C° 0 mm 4 mps 697 mmHg 32%
    14:00 +36°C° 0 mm 3 mps 697 mmHg 31%
    15:00 +36°C° 0 mm 3 mps 697 mmHg 30%
    16:00 +36°C° 0 mm 2 mps 696 mmHg 29%
    17:00 +36°C° 0 mm 2 mps 697 mmHg 31%
    18:00 +35°C° 0 mm 2 mps 697 mmHg 32%
    19:00 +34°C° 0 mm 2 mps 697 mmHg 34%
    20:00 +34°C° 0 mm 2 mps 697 mmHg 36%
    21:00 +32°C° 0 mm 2 mps 697 mmHg 38%
    22:00 +31°C° 0 mm 2 mps 698 mmHg 40%
    23:00 +31°C° 0 mm 2 mps 697 mmHg 41%
    Show more